GFSSW_250_spd_132.txt.gz
Wind_Speed
113 111 105 107 105 100 100 96 93 91 92 92 98 101 104 101 102 102 99 101 94 87 87 90 83 81 80 73 67 71 70 61 67 66 61 55 50 43 37 38 37 37 32 26 27
106 98 100 100 98 97 96 95 94 92 92 92 98 102 105 104 105 101 103 100 98 93 87 90 86 82 83 85 80 74 72 74 75 69 66 60 57 46 43 37 36 33 27 27 27
96 93 93 93 91 94 93 95 96 95 94 93 98 100 105 106 107 104 114 105 99 98 90 95 90 86 86 86 85 85 81 78 75 70 67 59 59 53 47 43 38 36 28 25 21
88 85 87 86 88 91 91 93 96 98 98 95 99 101 102 109 107 111 108 107 102 100 98 97 94 92 89 84 86 84 86 86 81 77 68 63 62 55 49 46 43 45 42 36 33
83 80 81 81 84 86 89 91 94 100 99 98 99 101 104 110 108 110 106 114 112 106 103 98 96 98 92 88 88 89 84 83 81 78 77 64 59 55 53 46 47 49 44 40 37
79 77 79 79 80 84 86 88 95 100 102 103 102 104 106 108 106 108 110 114 115 114 109 103 100 100 102 92 89 88 92 87 81 79 79 71 66 60 58 55 52 52 49 47 40
80 78 79 81 82 83 85 87 93 99 105 107 107 108 108 104 105 108 111 117 123 116 114 108 106 105 106 102 94 90 85 88 87 84 82 79 68 67 65 62 56 56 55 51 46
87 85 86 85 84 87 87 88 91 97 104 109 111 113 109 109 107 108 110 121 121 118 114 111 109 109 105 101 97 92 87 81 86 80 81 82 73 76 72 61 64 60 59 59 51
87 82 81 85 87 89 90 91 95 96 102 109 114 114 111 110 108 104 114 118 122 126 115 114 115 111 103 103 100 94 84 80 81 83 80 79 76 78 75 67 65 62 62 62 57
78 77 77 79 85 91 96 95 98 104 106 110 114 115 109 107 109 113 115 109 116 121 124 121 119 114 107 105 97 91 85 81 78 85 85 82 81 80 73 70 70 65 61 63 63
75 76 73 73 82 90 99 103 101 104 106 105 104 108 107 113 117 120 128 116 112 122 120 129 125 118 104 103 104 101 93 87 88 87 83 83 81 80 74 64 64 65 68 63 63
79 75 72 72 73 84 94 96 97 93 96 101 103 109 114 118 121 125 136 131 119 124 124 132 127 113 111 108 106 106 99 93 93 93 87 85 81 79 78 71 68 67 63 66 68
78 77 73 71 70 80 83 90 97 96 98 99 103 105 110 117 125 126 138 135 126 120 126 127 115 116 116 109 103 104 104 99 99 97 91 88 84 81 77 76 73 64 66 63 65
81 80 78 75 72 76 80 87 93 94 97 97 99 102 109 115 125 129 133 144 138 124 127 129 121 120 118 113 108 103 108 105 102 101 93 90 83 84 81 78 77 73 64 63 62
86 84 80 73 68 67 75 83 88 94 98 98 100 101 106 113 119 129 132 145 142 135 136 132 127 123 120 110 109 107 108 108 107 104 99 96 88 80 80 73 73 79 74 67 64
89 90 78 74 68 72 79 81 88 98 97 97 99 100 105 110 116 123 130 133 136 140 140 135 130 129 125 120 117 114 114 113 112 112 112 95 90 79 76 69 67 76 73 71 64
83 82 80 71 59 72 77 84 90 91 89 92 92 93 102 110 111 120 126 127 127 131 133 127 131 128 128 124 121 118 115 115 118 120 101 100 95 73 80 75 68 66 67 67 68
84 89 78 73 71 77 78 82 79 73 79 80 86 92 102 109 112 117 124 127 129 133 129 129 137 131 127 121 120 116 114 114 113 111 97 104 94 80 76 81 74 68 63 64 62
94 95 81 71 76 78 78 74 65 66 71 76 83 90 98 109 114 117 121 123 127 135 133 134 132 131 126 124 124 123 125 117 119 114 109 110 96 89 80 84 82 76 71 64 64
95 81 72 70 75 75 74 68 64 64 69 73 81 88 94 108 115 115 119 119 124 131 132 135 132 130 127 130 129 129 123 126 123 117 112 103 99 90 82 81 86 79 75 72 67
81 79 73 73 74 76 67 62 60 61 66 71 78 87 95 110 115 115 115 117 122 124 129 132 131 127 132 135 131 127 128 125 124 119 113 103 100 90 89 88 84 87 80 76 73
83 75 71 74 76 69 68 60 57 58 60 64 77 88 96 110 118 118 116 118 117 122 124 122 131 129 130 131 132 131 131 131 130 119 114 109 96 92 92 91 89 84 85 80 76
73 69 70 71 68 65 62 57 53 54 57 62 71 88 96 106 116 117 115 118 119 123 119 118 129 129 130 135 138 137 133 131 127 122 121 117 98 96 95 93 94 92 88 87 85
64 63 67 67 66 63 61 56 53 54 58 64 69 83 92 100 111 116 113 116 118 119 118 124 126 129 128 126 131 134 132 130 129 128 119 117 100 97 97 96 96 96 94 91 89
64 61 58 57 63 63 62 59 58 57 58 62 65 74 88 97 107 112 114 115 119 119 122 125 123 122 122 126 130 129 135 132 133 129 129 117 111 103 103 102 101 101 100 97 95
61 59 60 65 67 67 62 56 56 54 52 55 58 69 83 91 98 108 116 121 120 122 120 120 118 117 117 117 123 126 131 136 134 134 136 125 124 110 109 109 106 102 102 101 99
56 59 66 72 73 72 67 65 63 60 57 57 61 66 70 81 94 100 108 113 114 115 115 117 116 115 111 109 115 128 127 127 131 130 132 132 121 109 112 112 110 107 106 104 104

GFSSW_250_spd_138.txt.gz
Wind_Speed
108 108 108 107 106 103 103 102 100 97 96 95 97 96 99 95 94 93 88 86 84 86 86 84 79 78 76 74 67 67 66 65 64 63 57 57 50 50 49 44 40 32 34 34 33
113 112 111 111 110 111 110 109 106 104 102 104 104 106 104 103 101 95 94 92 89 85 89 90 85 84 80 80 75 72 66 71 68 67 61 62 58 59 52 49 48 41 35 34 35
119 119 119 118 119 114 113 113 113 112 112 111 110 112 110 109 108 98 98 96 95 88 90 92 93 90 86 84 80 77 70 75 74 69 69 64 64 62 60 55 52 48 38 32 34
123 123 122 122 123 122 121 121 122 119 120 118 118 117 116 117 110 103 101 99 97 96 91 93 93 96 92 89 86 84 80 76 78 74 71 70 73 66 67 61 56 53 44 38 30
135 133 132 131 132 129 127 128 128 126 125 125 126 124 122 120 112 109 107 104 102 99 94 93 94 97 97 95 92 87 87 79 79 78 72 76 72 71 70 71 59 57 53 46 37
140 138 139 137 137 135 134 133 131 134 132 130 130 129 129 123 119 116 113 109 104 104 98 98 94 97 101 98 100 92 93 85 80 81 78 76 75 68 71 72 66 61 58 49 45
144 143 142 143 139 139 138 137 139 141 137 136 136 134 132 124 123 120 114 111 104 102 100 99 96 97 105 102 99 99 98 91 83 82 83 78 76 73 80 78 70 63 60 56 48
145 143 138 136 136 138 138 139 137 134 136 137 135 133 132 127 121 118 114 110 106 101 101 99 101 98 107 105 101 104 102 96 89 85 86 84 77 83 84 80 75 67 68 61 56
127 126 122 117 122 128 127 122 125 129 128 127 128 128 126 119 113 112 109 106 104 101 103 102 102 101 107 104 104 106 105 97 96 91 90 87 82 87 85 82 82 68 65 61 58
115 116 107 105 108 113 113 112 111 114 116 118 120 117 106 103 106 109 107 105 103 101 103 105 104 105 107 105 104 107 105 102 100 95 93 92 87 90 85 82 78 69 61 59 58
110 108 102 97 95 99 101 104 107 106 105 106 100 101 100 100 104 104 103 105 106 105 103 105 106 101 99 103 113 113 109 107 104 102 97 95 93 92 89 84 81 74 69 67 64
103 99 96 92 88 90 98 96 85 88 96 94 93 95 93 94 97 98 101 107 105 100 103 110 106 96 102 108 117 118 117 111 106 105 99 96 97 96 89 85 84 80 74 72 71
93 92 90 91 88 94 92 80 83 84 93 92 93 92 89 88 94 97 100 103 104 103 106 109 97 104 106 112 115 125 122 112 111 110 103 100 99 98 93 87 88 84 82 80 79
86 85 85 88 90 91 91 82 80 86 91 91 90 90 89 88 92 95 98 101 106 102 105 109 106 107 112 116 111 119 121 118 114 114 106 102 98 98 95 87 87 88 87 83 80
80 84 84 89 84 91 84 85 83 86 95 91 91 87 87 89 88 90 92 95 98 100 108 105 107 107 115 114 115 116 121 121 119 116 112 107 102 95 96 89 87 85 86 85 81
78 82 84 87 88 87 83 85 84 86 94 89 88 85 84 86 87 88 89 93 98 104 108 110 109 111 111 115 113 117 120 125 123 120 117 106 105 95 96 88 88 89 86 84 81
77 82 85 86 83 88 92 96 84 91 80 71 76 81 82 86 88 86 88 89 93 100 104 105 108 108 114 118 122 123 124 125 125 126 114 112 112 92 92 92 89 90 88 86 82
76 81 84 83 89 90 93 89 91 85 70 63 68 80 81 83 87 90 93 92 92 95 102 109 112 108 114 116 120 114 119 131 130 124 113 119 115 101 89 93 89 92 86 84 83
77 81 85 87 90 92 91 91 91 68 61 59 67 76 81 83 86 91 91 92 93 96 98 104 109 110 117 116 120 118 127 123 132 131 125 122 109 106 98 91 93 94 91 85 84
75 83 88 89 89 91 91 93 77 69 61 60 65 68 73 83 86 88 91 92 94 96 100 103 108 113 115 121 126 126 122 129 133 137 129 120 112 106 102 92 90 94 94 90 88
79 85 86 89 94 97 89 82 78 63 57 55 52 56 63 72 85 93 94 95 97 101 103 104 109 111 118 123 123 122 124 129 128 133 135 123 116 109 106 102 93 93 96 97 92
78 83 88 91 90 84 84 87 70 64 57 55 54 57 61 66 72 81 90 98 100 103 104 103 111 113 116 118 124 125 125 130 131 130 133 131 118 112 111 104 97 93 96 98 97
77 85 88 89 90 92 91 77 69 63 61 58 55 56 60 62 65 71 79 94 101 101 104 106 109 113 119 123 124 127 125 124 130 134 137 131 119 119 112 109 104 98 98 99 101
84 89 92 90 86 80 75 67 66 65 62 57 54 57 61 62 61 68 73 86 96 100 101 106 108 112 117 118 122 124 127 127 129 133 133 135 117 121 115 113 110 105 104 104 103
83 82 81 86 86 81 75 67 64 65 57 51 53 55 57 60 59 65 72 81 91 98 99 102 105 109 114 121 125 127 129 129 131 127 134 126 118 120 117 115 115 112 111 107 105
73 77 81 82 79 81 75 72 70 60 56 59 58 58 57 58 61 65 70 77 86 96 98 98 97 102 107 111 119 124 124 130 127 119 122 123 118 111 123 122 117 118 116 112 109
75 78 78 74 77 71 65 67 64 63 58 61 64 60 57 59 60 62 64 72 79 87 95 97 96 97 98 105 112 116 115 126 124 121 120 121 113 101 120 125 120 119 119 116 113

GFSSW_250_spd_141.txt.gz
Wind_Speed
98 96 96 96 95 95 95 94 93 92 92 91 90 90 89 87 86 85 82 81 79 79 76 74 70 71 71 71 70 71 65 62 64 61 58 54 50 48 56 50 40 36 43 38 33
102 102 101 100 100 100 99 99 99 99 98 97 96 95 94 94 94 88 85 84 84 82 81 78 76 75 75 76 74 72 71 68 71 64 64 56 54 52 54 52 48 40 44 37 35
109 109 108 107 107 107 107 106 107 106 105 103 102 99 100 102 99 87 89 88 86 84 84 84 81 83 79 79 79 78 73 77 75 71 68 63 59 55 55 55 58 58 50 38 40
117 116 114 113 111 111 112 110 109 108 107 106 105 104 104 108 102 94 92 92 91 90 88 87 86 85 85 82 84 83 80 83 78 75 74 68 65 59 60 58 59 58 59 51 42
120 120 119 117 116 115 113 111 111 110 109 109 108 107 110 110 103 99 97 97 96 96 92 92 91 90 88 88 88 82 88 84 85 79 77 73 70 67 60 65 59 59 59 56 52
121 121 121 121 119 118 117 116 114 115 115 113 113 113 114 110 108 105 102 104 103 102 99 97 95 94 93 92 92 91 86 91 90 83 82 80 77 70 68 69 66 67 65 59 57
127 126 125 125 125 126 125 123 123 121 119 118 118 119 120 112 115 112 110 110 109 107 105 104 101 99 98 95 94 93 91 93 90 91 83 84 82 72 77 71 70 72 68 65 62
135 133 131 130 129 127 126 126 126 127 127 127 129 128 125 124 119 117 115 114 114 115 114 111 108 105 105 101 99 97 92 92 92 97 90 90 80 84 81 76 71 73 71 70 66
145 143 140 137 136 136 136 135 137 138 139 139 138 136 133 127 123 121 121 120 120 120 120 118 117 112 108 106 103 100 92 90 99 100 99 93 87 90 87 78 75 74 75 71 68
150 149 148 146 145 143 142 143 144 145 143 144 143 141 133 127 127 126 126 127 127 127 126 126 121 121 112 108 102 101 98 97 96 103 103 98 93 93 93 86 79 77 76 72 70
146 150 150 149 147 146 151 151 150 148 141 142 142 140 137 138 136 133 132 134 133 132 129 127 128 125 115 108 105 107 102 99 95 104 105 103 100 96 96 88 82 78 75 75 76
124 126 131 132 132 131 135 138 137 142 143 144 139 138 134 131 130 130 130 132 133 129 129 132 129 118 120 113 109 109 104 96 97 101 107 110 105 100 97 90 86 83 78 78 78
122 120 121 119 118 116 115 109 118 121 121 120 120 122 120 116 115 116 118 122 123 120 123 125 113 121 118 110 107 104 101 95 97 108 111 114 109 104 99 93 89 87 81 77 80
118 118 118 117 118 110 105 97 116 108 114 115 111 110 104 100 103 107 110 113 115 113 113 116 110 114 114 102 100 100 98 96 105 111 112 115 108 107 100 94 86 86 84 80 83
107 109 111 116 108 108 98 95 95 100 110 109 106 99 97 94 93 96 105 105 100 100 107 101 107 109 106 94 100 96 101 99 107 112 118 114 110 104 105 96 87 86 86 86 86
99 99 102 106 104 99 99 93 92 107 114 111 96 89 86 84 87 90 95 99 100 101 100 98 104 105 98 96 100 99 101 104 110 113 120 108 112 110 107 95 92 89 89 91 92
90 92 92 96 89 91 95 99 102 111 108 104 90 82 80 79 80 86 87 88 90 94 91 93 98 96 97 96 100 101 100 104 110 113 117 111 116 105 105 102 95 92 91 93 93
86 88 89 88 92 91 94 99 106 106 104 97 86 80 81 79 82 84 86 85 86 86 89 94 95 90 88 93 91 97 98 104 108 108 109 121 115 102 105 105 100 97 95 95 95
79 80 82 86 88 89 97 99 98 98 95 95 86 79 76 75 80 85 86 84 83 85 86 86 87 87 91 87 96 98 104 101 108 110 120 121 111 109 110 106 104 101 99 99 98
71 73 77 82 86 91 97 93 92 90 97 89 74 70 69 66 73 78 84 82 82 85 87 84 86 90 86 94 99 102 101 106 112 118 122 127 114 108 112 111 105 104 101 103 102
70 72 78 79 86 93 90 92 92 90 85 81 78 65 61 65 64 71 78 83 84 86 89 89 88 87 91 95 93 99 105 111 115 122 125 114 110 104 116 116 107 103 107 105 103
67 70 75 82 90 91 90 94 95 91 88 81 69 61 63 65 67 70 79 85 87 90 91 92 95 91 92 92 97 102 106 111 120 122 124 122 110 104 116 119 110 108 108 107 106
63 70 77 85 90 88 94 89 83 86 88 76 65 63 63 63 64 65 75 84 87 88 91 93 93 92 93 96 99 102 103 109 115 119 125 126 104 103 111 124 120 112 112 111 110
66 73 80 84 82 85 83 82 93 90 74 75 68 62 64 59 59 66 73 80 85 87 86 90 92 92 90 91 98 104 107 112 116 121 122 123 109 105 110 119 126 119 114 115 113
67 74 79 84 86 88 88 82 80 79 76 69 61 63 58 59 61 62 65 72 77 82 85 87 87 90 89 97 102 104 104 110 115 118 124 117 110 105 111 114 123 127 116 116 115
62 68 66 71 71 78 82 83 81 75 67 58 55 56 56 58 58 60 63 65 66 70 73 82 89 90 89 94 100 102 104 108 112 113 120 120 113 104 108 116 116 127 126 117 114
57 61 69 70 76 78 77 78 76 68 58 57 60 63 61 61 62 62 63 63 63 63 66 70 77 86 90 96 99 101 93 103 106 110 117 124 112 110 111 111 119 128 130 124 114

GFSSW_250_spd_144.txt.gz
Wind_Speed
91 89 89 90 90 89 89 90 91 90 90 88 87 84 83 81 79 77 75 75 73 73 69 67 67 67 64 63 61 59 63 63 63 61 57 50 51 49 48 47 44 39 33 23 25
98 96 95 93 92 92 92 92 93 94 94 94 92 90 89 86 84 80 79 76 76 76 74 71 71 70 70 68 65 66 63 67 67 67 62 55 55 52 51 50 46 46 40 30 30
104 102 103 103 99 97 94 93 92 92 93 94 94 93 93 92 90 82 83 79 81 80 76 75 74 73 73 74 72 72 70 69 72 70 66 63 60 53 55 52 51 49 48 44 45
110 107 108 106 105 102 100 99 98 98 96 95 96 95 96 96 92 86 86 86 87 86 84 83 81 80 79 79 78 74 75 73 74 73 69 70 65 61 59 58 56 53 49 49 49
111 113 113 112 110 109 107 103 102 102 101 101 101 102 102 98 93 92 93 94 94 93 91 91 89 88 86 85 84 80 78 78 77 76 74 72 71 68 63 64 58 58 53 54 53
117 114 112 114 113 112 114 111 107 106 106 105 106 108 106 97 101 98 96 99 99 98 97 96 95 95 92 88 90 86 82 84 84 80 77 77 72 73 69 69 67 61 61 56 52
119 120 120 119 116 116 117 115 114 113 112 111 112 113 111 104 108 105 100 104 103 102 101 102 101 100 97 95 92 89 88 87 85 85 83 80 78 74 77 77 73 64 66 62 57
125 124 124 122 121 122 121 119 119 118 118 117 116 116 112 112 109 107 104 106 106 106 104 105 106 106 101 98 96 91 92 90 89 90 86 85 73 83 81 81 78 75 69 69 63
129 128 126 124 122 123 121 121 123 123 124 124 119 117 117 111 107 105 104 105 108 108 109 109 109 109 107 104 99 94 91 91 91 94 91 89 78 82 88 85 83 80 76 71 66
130 130 130 130 127 125 125 127 128 127 126 125 124 123 116 110 114 112 112 111 114 113 111 109 111 110 109 106 102 101 99 95 95 96 95 90 80 87 86 89 85 86 82 78 69
137 134 133 132 131 130 129 133 133 130 127 123 125 123 118 119 119 114 115 114 118 118 114 114 117 113 109 113 111 110 107 100 96 98 99 91 85 87 89 88 90 88 86 83 77
143 140 139 139 136 136 136 136 130 130 133 135 133 130 126 126 123 120 121 123 124 122 121 123 121 111 120 122 120 116 113 106 101 100 103 94 88 90 90 88 92 91 90 89 83
151 148 145 145 145 145 140 138 137 138 140 140 140 138 135 132 131 130 130 129 130 129 129 130 120 125 128 127 124 120 116 111 112 106 105 100 91 94 92 94 91 91 93 92 89
152 150 149 155 152 150 145 143 147 146 149 148 145 142 139 136 139 138 136 136 138 135 134 135 126 133 131 129 128 126 121 121 119 118 109 106 96 92 96 94 90 91 97 93 87
132 134 137 145 147 152 146 147 155 155 160 151 151 149 148 145 142 143 142 143 140 139 143 137 134 136 136 129 133 127 129 128 126 121 121 110 108 85 98 94 92 93 97 98 91
124 121 121 121 122 119 122 122 123 140 152 151 138 130 132 132 136 138 139 141 136 137 139 134 133 134 130 123 127 127 129 126 123 124 127 102 106 90 93 94 96 93 96 101 97
120 119 120 120 112 117 113 112 120 127 127 129 120 118 114 114 114 111 116 119 116 112 109 104 107 110 109 108 111 113 112 114 117 118 118 92 107 86 90 95 97 97 97 103 101
107 114 117 115 119 118 117 121 126 125 121 120 118 116 113 109 109 104 103 104 99 96 94 96 97 92 92 97 101 105 106 111 111 108 106 94 107 82 88 95 98 101 101 105 107
100 101 105 107 111 114 116 122 124 121 114 110 114 110 106 106 102 95 93 92 91 87 89 92 89 90 91 87 95 97 104 99 103 101 103 94 97 85 86 92 98 103 105 109 111
87 92 94 95 99 104 111 113 115 110 104 107 106 100 95 94 89 84 84 80 82 85 86 84 83 86 85 90 91 91 91 96 97 97 98 91 91 83 84 93 98 100 103 109 115
78 82 86 89 93 101 104 102 103 100 98 96 97 92 89 87 82 80 77 79 80 81 81 81 82 83 85 84 81 86 91 93 93 97 97 93 94 79 86 94 96 96 97 105 116
73 74 79 84 91 94 93 93 93 98 89 85 84 88 80 78 80 74 74 75 76 76 76 82 86 81 82 86 85 87 85 89 96 88 89 93 88 79 86 93 90 94 95 102 114
66 69 75 79 81 83 83 85 88 91 80 82 82 75 76 79 79 70 72 78 76 76 77 78 76 77 81 83 81 81 82 86 90 89 91 93 83 78 83 93 94 94 96 103 108
63 66 70 73 77 78 80 84 84 86 77 78 77 73 76 78 74 67 63 68 68 70 71 73 74 74 73 80 86 86 84 87 90 93 82 92 82 75 83 94 98 97 98 100 105
61 63 64 65 70 73 75 79 80 77 78 77 72 73 72 73 71 62 65 68 66 67 68 70 72 76 77 82 88 85 85 87 88 82 87 79 86 71 82 95 101 104 105 102 102
52 54 59 64 67 68 69 74 78 78 71 68 71 71 72 73 60 64 67 66 60 63 66 67 70 76 77 80 85 84 81 85 84 83 88 84 89 72 86 96 108 113 112 110 111
45 51 55 58 60 63 66 65 65 64 70 74 71 72 69 69 68 66 62 58 54 61 66 70 73 74 75 78 78 72 73 82 84 86 91 90 85 83 85 101 109 110 118 119 115

GFSSW_250_spd_147.txt.gz
Wind_Speed
94 90 85 86 84 81 84 87 84 86 86 84 83 80 76 76 74 72 69 69 66 67 65 63 60 58 57 56 56 53 49 51 55 52 47 45 47 44 44 41 42 44 45 36 29
100 97 95 92 88 87 87 85 88 89 89 88 88 85 82 81 79 76 76 75 73 74 71 69 66 64 64 63 59 58 56 57 58 55 52 50 52 52 48 46 43 45 47 47 39
105 103 99 94 94 95 91 89 87 87 90 93 93 91 88 87 84 79 83 78 77 77 75 71 71 69 69 68 66 64 61 62 62 60 56 51 57 58 57 53 46 46 49 48 49
108 105 103 100 96 95 94 92 91 90 90 90 90 92 92 92 87 83 84 84 84 83 81 79 77 75 73 73 72 68 68 65 64 64 60 59 58 60 61 60 53 50 48 53 53
108 105 104 105 103 102 100 99 96 96 94 95 94 94 93 89 85 83 89 90 89 88 86 86 82 81 78 77 77 72 69 67 66 69 65 65 64 58 63 66 63 57 53 51 54
112 111 111 109 107 103 105 105 104 102 101 100 98 96 93 87 88 87 87 90 91 91 89 87 86 85 83 82 78 75 74 74 73 76 72 67 67 65 71 70 66 65 60 55 53
119 117 116 116 118 112 107 110 108 108 110 109 108 104 98 90 92 89 88 90 91 92 93 94 94 93 89 88 84 82 80 78 78 81 78 77 70 72 76 76 71 68 68 62 61
122 124 120 121 121 120 117 116 114 115 115 117 112 110 103 100 98 93 92 94 95 95 96 96 97 97 94 92 92 90 88 85 82 85 87 87 74 80 81 80 77 74 70 70 67
126 124 120 119 121 125 120 117 118 119 120 118 115 116 110 107 104 102 99 100 103 101 102 101 101 101 100 97 98 97 95 92 89 93 94 97 82 83 85 84 80 77 76 73 72
130 128 124 123 121 120 120 121 123 123 121 117 115 114 111 111 111 112 107 107 108 106 106 106 107 104 100 101 99 102 101 99 95 95 101 100 90 87 86 85 85 83 78 78 76
134 130 129 127 126 125 126 129 131 128 124 120 118 118 114 115 113 110 109 110 111 109 109 109 111 105 104 108 108 108 108 104 100 101 107 106 97 91 87 88 88 89 82 77 79
135 135 133 131 131 131 132 131 130 125 125 124 122 120 119 119 116 113 114 115 115 114 116 115 110 106 112 110 111 112 112 109 106 107 114 112 105 96 91 89 88 87 85 83 81
139 135 134 135 138 139 136 132 131 127 129 129 127 125 123 121 119 117 118 115 116 115 115 117 112 115 115 113 113 116 117 114 113 114 114 115 108 92 86 86 89 84 89 88 84
145 142 139 138 141 136 130 131 132 132 137 136 132 127 127 122 118 116 116 118 119 118 119 121 114 117 119 116 117 120 118 122 122 120 117 118 106 87 84 82 87 89 89 90 91
151 149 146 145 140 138 134 135 136 135 143 139 133 129 130 125 120 121 123 123 122 122 124 118 120 122 124 118 123 121 123 123 124 125 122 120 112 81 89 80 86 90 93 93 95
151 151 151 152 146 143 144 144 144 148 151 142 137 134 132 125 124 124 124 125 124 126 128 123 125 127 124 123 125 125 126 127 129 128 130 117 119 87 93 86 88 95 95 96 98
138 145 152 153 147 149 151 151 154 154 150 150 140 137 134 134 132 128 128 131 130 133 132 132 132 131 130 129 131 132 132 135 136 135 132 123 132 95 102 99 100 104 100 103 101
125 130 138 142 145 150 154 158 162 154 156 150 143 145 141 138 137 132 133 135 133 136 138 138 137 135 133 134 136 139 140 141 141 137 135 134 137 103 106 112 108 108 108 106 104
126 129 128 129 129 132 139 149 152 149 149 152 151 149 145 140 137 139 137 139 142 141 140 140 141 141 136 134 133 129 133 133 139 140 142 135 129 114 109 111 111 108 107 105 104
125 125 123 123 121 122 127 130 128 126 126 128 133 137 135 132 129 126 123 118 120 124 122 120 118 116 115 115 105 104 104 109 114 119 122 115 110 100 95 97 104 105 102 101 101
98 112 125 124 124 126 126 124 115 115 113 113 113 112 109 102 95 99 102 102 106 108 109 110 108 108 108 103 102 99 95 96 98 100 102 103 96 87 88 94 95 98 94 97 100
75 83 99 113 124 129 126 121 115 115 112 115 113 109 101 96 94 98 102 103 102 102 102 103 105 104 102 98 94 91 86 90 94 90 93 95 82 80 82 84 90 94 94 94 99
69 80 89 96 103 110 116 118 117 117 115 114 113 106 101 99 98 104 105 104 100 98 98 97 96 92 91 89 87 83 83 86 88 89 84 87 68 72 75 77 82 85 91 95 93
62 70 76 80 89 94 97 100 104 110 113 116 113 114 101 102 103 104 98 98 95 90 87 87 85 81 77 82 82 81 79 80 83 83 73 81 63 57 70 73 80 81 85 88 88
54 61 67 66 69 76 82 87 89 92 97 98 104 95 91 89 92 91 90 90 83 80 78 77 77 75 76 78 78 79 76 78 78 77 82 70 69 50 69 74 74 76 87 92 94
48 54 55 61 65 70 70 66 71 77 80 85 85 76 74 78 79 70 76 77 75 75 75 71 69 71 71 72 74 74 73 73 73 77 78 75 66 61 66 77 78 79 83 90 95
40 41 42 49 53 55 56 60 63 70 72 76 73 59 65 68 66 72 78 79 77 74 69 66 66 66 66 66 67 66 68 71 71 75 76 76 66 68 63 72 74 75 77 85 94